Weather History for Grand Rapids, MN

Change the Weather History Date:

Tuesday, July 29, 2014

  Actual Average Record
Temperature  
Mean Temperature 65 °F -  
Max Temperature 75 °F 79 °F 102 °F (1917)
Min Temperature 55 °F 53 °F 34 °F (1925)
Growing Degree Days 15 (Base 50)    
Moisture  
Dew Point 54 °F    
Average Humidity 70    
Maximum Humidity 94    
Minimum Humidity 47    
Precipitation  
Precipitation 0.27 in - - ()
Sea Level Pressure  
Sea Level Pressure 30.10 in    
Wind  
Wind Speed 8 mph (NW)    
Max Wind Speed 17 mph    
Max Gust Speed 31 mph    
Visibility 10 miles    
Events Thunderstorm    
Averages and records for this station are not official NWS values.
T = Trace of Precipitation, MM = Missing Value Source: NWS Daily Summary

Daily Weather History Graph

Daily Weather History Graph

Search for Another Location

Airport:

Trip Planner

Search our weather history database for the weather conditions in past years. The results will help you decide how hot, cold, wet, or windy it might be!

Date:

Astronomy

Jul. 29, 2014 Rise Set
Actual Time 5:49 AM CDT 8:51 PM CDT
Civil Twilight 5:12 AM CDT 9:27 PM CDT
Nautical Twilight 4:26 AM CDT 10:13 PM CDT
Astronomical Twilight 3:29 AM CDT 11:09 PM CDT
Moon 8:40 AM CDT (7/29) 9:47 PM CDT (7/29)
Length of Visible Light 16h 14m
Length of Day
15h 02m
Waxing Crescent, 7% of the Moon is Illuminated
Jul 29
Waxing Crescent
Aug 3
First Quarter
Aug 10
Full
Aug 17
Last Quarter
Aug 25
New

Hourly Weather History & Observations

Time (CDT) Temp. Dew Point Humidity Pressure Visibility Wind Dir Wind Speed Gust Speed Precip Events Conditions
12:15 AM 62.6 °F 53.6 °F 72% 30.14 in 10.0 mi WNW 9.2 mph - N/A   Clear
12:35 AM 62.6 °F 53.6 °F 72% 30.14 in 10.0 mi WNW 8.1 mph - N/A   Clear
12:55 AM 62.6 °F 53.6 °F 72% 30.14 in 10.0 mi WNW 9.2 mph - N/A   Clear
1:15 AM 62.6 °F 53.6 °F 72% 30.14 in 10.0 mi NW 6.9 mph - N/A   Scattered Clouds
1:35 AM 60.8 °F 53.6 °F 77% 30.13 in 10.0 mi WNW 5.8 mph - N/A   Partly Cloudy
1:55 AM 57.2 °F 53.6 °F 88% 30.13 in 10.0 mi WNW 3.5 mph - N/A   Clear
2:15 AM 57.2 °F 51.8 °F 82% 30.13 in 10.0 mi Calm Calm - N/A   Clear
2:35 AM 57.2 °F 51.8 °F 82% 30.13 in 10.0 mi Calm Calm - N/A   Clear
2:55 AM 57.2 °F 51.8 °F 82% 30.13 in 10.0 mi NNW 3.5 mph - N/A   Clear
3:15 AM 57.2 °F 51.8 °F 82% 30.13 in 10.0 mi NW 4.6 mph - N/A   Clear
3:35 AM 57.2 °F 53.6 °F 88% 30.13 in 10.0 mi WNW 5.8 mph - N/A   Clear
3:55 AM 57.2 °F 53.6 °F 88% 30.12 in 10.0 mi WNW 5.8 mph - N/A   Scattered Clouds
4:15 AM 59.0 °F 53.6 °F 82% 30.12 in 10.0 mi WNW 6.9 mph - N/A   Mostly Cloudy
4:35 AM 59.0 °F 53.6 °F 82% 30.12 in 10.0 mi WNW 5.8 mph - N/A   Overcast
4:55 AM 59.0 °F 53.6 °F 82% 30.12 in 10.0 mi NW 4.6 mph - N/A   Scattered Clouds
5:15 AM 57.2 °F 53.6 °F 88% 30.12 in 10.0 mi NW 5.8 mph - N/A   Clear
5:35 AM 57.2 °F 51.8 °F 82% 30.12 in 10.0 mi NW 3.5 mph - N/A   Clear
5:55 AM 55.4 °F 51.8 °F 88% 30.13 in 10.0 mi Calm Calm - N/A   Clear
6:15 AM 55.4 °F 51.8 °F 88% 30.13 in 10.0 mi Calm Calm - N/A   Clear
6:35 AM 55.4 °F 53.6 °F 94% 30.12 in 10.0 mi West 3.5 mph - N/A   Clear
6:55 AM 57.2 °F 53.6 °F 88% 30.12 in 10.0 mi Calm Calm - N/A   Clear
7:15 AM 57.2 °F 55.4 °F 94% 30.12 in 10.0 mi WNW 4.6 mph - N/A   Clear
7:35 AM 60.8 °F 55.4 °F 82% 30.13 in 10.0 mi NW 8.1 mph - N/A   Clear
7:55 AM 60.8 °F 55.4 °F 82% 30.13 in 10.0 mi WNW 5.8 mph - N/A   Clear
8:15 AM 62.6 °F 55.4 °F 77% 30.13 in 10.0 mi NW 9.2 mph - N/A   Clear
8:35 AM 62.6 °F 55.4 °F 77% 30.13 in 10.0 mi NW 9.2 mph - N/A   Clear
8:55 AM 64.4 °F 55.4 °F 73% 30.13 in 10.0 mi NW 8.1 mph - N/A   Scattered Clouds
9:15 AM 64.4 °F 55.4 °F 73% 30.13 in 10.0 mi NW 10.4 mph - N/A   Scattered Clouds
9:35 AM 66.2 °F 55.4 °F 68% 30.13 in 10.0 mi NW 11.5 mph - N/A   Clear
9:55 AM 68.0 °F 55.4 °F 64% 30.12 in 10.0 mi NW 10.4 mph 18.4 mph N/A   Clear
10:15 AM 69.8 °F 55.4 °F 60% 30.13 in 10.0 mi NW 12.7 mph 17.3 mph N/A   Clear
10:35 AM 69.8 °F 53.6 °F 56% 30.12 in 10.0 mi NW 16.1 mph 19.6 mph N/A   Clear
10:55 AM 71.6 °F 53.6 °F 53% 30.12 in 10.0 mi NW 11.5 mph - N/A   Clear
11:15 AM 71.6 °F 51.8 °F 50% 30.12 in 10.0 mi NNW 13.8 mph 20.7 mph N/A   Clear
11:35 AM 71.6 °F 53.6 °F 53% 30.11 in 10.0 mi NW 13.8 mph 19.6 mph N/A   Clear
11:55 AM 71.6 °F 53.6 °F 53% 30.11 in 10.0 mi NW 12.7 mph - N/A   Clear
12:15 PM 71.6 °F 53.6 °F 53% 30.11 in 10.0 mi NW 17.3 mph 23.0 mph N/A   Clear
12:35 PM 73.4 °F 53.6 °F 50% 30.10 in 10.0 mi NW 15.0 mph 23.0 mph N/A   Clear
12:55 PM 73.4 °F 53.6 °F 50% 30.10 in 10.0 mi NW 16.1 mph 23.0 mph N/A   Clear
1:15 PM 73.4 °F 55.4 °F 53% 30.10 in 10.0 mi WNW 13.8 mph 19.6 mph N/A   Scattered Clouds
1:35 PM 73.4 °F 55.4 °F 53% 30.09 in 10.0 mi NW 12.7 mph - N/A   Mostly Cloudy
1:55 PM 73.4 °F 55.4 °F 53% 30.09 in 10.0 mi WNW 13.8 mph 18.4 mph N/A   Mostly Cloudy
2:15 PM 73.4 °F 53.6 °F 50% 30.08 in 10.0 mi WNW 12.7 mph 18.4 mph N/A   Mostly Cloudy
2:35 PM 71.6 °F 53.6 °F 53% 30.08 in 10.0 mi NW 15.0 mph - N/A   Scattered Clouds
2:55 PM 73.4 °F 55.4 °F 53% 30.08 in 10.0 mi WNW 10.4 mph - N/A   Mostly Cloudy
3:15 PM 73.4 °F 51.8 °F 47% 30.07 in 10.0 mi NW 16.1 mph 21.9 mph N/A   Scattered Clouds
3:35 PM 75.2 °F 53.6 °F 47% 30.07 in 10.0 mi NW 17.3 mph 23.0 mph N/A   Partly Cloudy
3:55 PM 75.2 °F 53.6 °F 47% 30.06 in 10.0 mi WNW 16.1 mph 20.7 mph N/A   Clear
4:15 PM 75.2 °F 53.6 °F 47% 30.06 in 10.0 mi WNW 12.7 mph 19.6 mph N/A   Partly Cloudy
4:35 PM 75.2 °F 55.4 °F 50% 30.06 in 10.0 mi NW 17.3 mph 26.5 mph N/A   Scattered Clouds
4:55 PM 73.4 °F 53.6 °F 50% 30.06 in 10.0 mi WNW 12.7 mph - N/A   Scattered Clouds
5:15 PM 73.4 °F 53.6 °F 50% 30.06 in 10.0 mi NW 12.7 mph 17.3 mph N/A   Mostly Cloudy
5:35 PM 73.4 °F 53.6 °F 50% 30.05 in 10.0 mi NNW 16.1 mph - N/A   Partly Cloudy
5:55 PM 73.4 °F 53.6 °F 50% 30.05 in 10.0 mi NW 13.8 mph 18.4 mph N/A   Clear
6:15 PM 73.4 °F 53.6 °F 50% 30.05 in 10.0 mi WNW 12.7 mph - N/A   Partly Cloudy
6:35 PM 73.4 °F 53.6 °F 50% 30.05 in 10.0 mi NW 10.4 mph 17.3 mph N/A   Mostly Cloudy
6:55 PM 73.4 °F 53.6 °F 50% 30.05 in 10.0 mi NW 12.7 mph - N/A   Mostly Cloudy
7:15 PM 73.4 °F 53.6 °F 50% 30.05 in 10.0 mi WNW 9.2 mph - N/A   Scattered Clouds
7:35 PM 66.2 °F 51.8 °F 60% 30.08 in 5.0 mi NNE 11.5 mph 31.1 mph 0.19 in   Mostly Cloudy
7:55 PM 62.6 °F 53.6 °F 72% 30.05 in 10.0 mi West 6.9 mph - 0.19 in   Overcast
8:15 PM 62.6 °F 55.4 °F 77% 30.05 in 10.0 mi Calm Calm - N/A   Scattered Clouds
8:35 PM 60.8 °F 55.4 °F 82% 30.05 in 9.0 mi Calm Calm - N/A   Scattered Clouds
8:55 PM 60.8 °F 57.2 °F 88% 30.06 in 9.0 mi Calm Calm - N/A   Overcast
9:15 PM 60.8 °F 57.2 °F 88% 30.07 in 9.0 mi NNW 3.5 mph 16.1 mph 0.08 in   Overcast
9:35 PM 62.6 °F 57.2 °F 82% 30.07 in 10.0 mi Calm Calm - 0.08 in Thunderstorm Overcast
9:55 PM 60.8 °F 57.2 °F 88% 30.06 in 7.0 mi Calm Calm - 0.08 in   Overcast
10:15 PM 60.8 °F 57.2 °F 88% 30.07 in 9.0 mi ENE 6.9 mph - N/A   Overcast
10:35 PM 60.8 °F 57.2 °F 88% 30.08 in 10.0 mi Calm Calm - N/A   Overcast
10:55 PM 60.8 °F 57.2 °F 88% 30.08 in 8.0 mi Calm Calm - N/A   Mostly Cloudy
11:15 PM 59.0 °F 55.4 °F 88% 30.08 in 7.0 mi Calm Calm - N/A   Mostly Cloudy
11:35 PM 59.0 °F 55.4 °F 88% 30.07 in 6.0 mi South 3.5 mph - N/A   Mostly Cloudy
11:55 PM 59.0 °F 55.4 °F 88% 30.07 in 5.0 mi Calm Calm - N/A   Scattered Clouds